Weather History for London, United Kingdom

Change the Weather History Date:

Monday, May 6, 2013

  Actual Average Record
Temperature  
Mean Temperature 61 °F -  
Max Temperature 71 °F 63 °F 77 °F (2011)
Min Temperature 51 °F 48 °F 39 °F (1997)
Degree Days  
Heating Degree Days 4    
Growing Degree Days 11 (Base 50)    
Moisture  
Dew Point 46 °F    
Average Humidity 58    
Maximum Humidity 82    
Minimum Humidity 30    
Precipitation  
Precipitation 0.00 in - - ()
Sea Level Pressure  
Sea Level Pressure 30.12 in    
Wind  
Wind Speed 5 mph ()    
Max Wind Speed 12 mph    
Max Gust Speed 21 mph    
Visibility 7.9 miles    
Events      
Averages and records for this station are not official NWS values.
T = Trace of Precipitation, MM = Missing Value Source: Averaged Metar Reports

Daily Weather History Graph

Daily Weather History Graph

Search for Another Location

Airport:

Trip Planner

Search our weather history database for the weather conditions in past years. The results will help you decide how hot, cold, wet, or windy it might be!

Date:

Astronomy

May. 06, 2013 Rise Set
Actual Time 5:24 AM BST 8:33 PM BST
Civil Twilight 4:45 AM BST 9:12 PM BST
Nautical Twilight 3:53 AM BST 10:04 PM BST
Astronomical Twilight 2:46 AM BST 11:13 PM BST
Moon 3:43 AM BST (5/6) 4:57 PM BST (5/6)
Length of Visible Light 16h 27m
Length of Day
15h 08m
Waning Crescent, 12% of the Moon is Illuminated
May 6
Waning Crescent
May 10
New
May 18
First Quarter
May 25
Full
May 31
Last Quarter

Hourly Weather History & Observations

Time (BST) Temp. Dew Point Humidity Pressure Visibility Wind Dir Wind Speed Gust Speed Precip Events Conditions
12:20 AM 55.4 °F 46.4 °F 72% 30.18 in - SSW 4.6 mph - N/A   Clear
12:50 AM 54 °F 47 °F 70% 30.18 in 16 mi SW 6.9 mph - -   Scattered Clouds
12:50 AM 53.6 °F 46.4 °F 77% 30.18 in - SW 5.8 mph - N/A   Clear
1:20 AM 53.6 °F 46.4 °F 77% 30.18 in - SW 4.6 mph - N/A   Clear
1:50 AM 53.6 °F 46.4 °F 77% 30.15 in 6.2 mi Variable 3.5 mph - N/A   Scattered Clouds
2:20 AM 53.6 °F 46.4 °F 77% 30.15 in 6.2 mi West 4.6 mph - N/A   Mostly Cloudy
2:50 AM 53.6 °F 46.4 °F 77% 30.15 in 6.2 mi West 4.6 mph - N/A   Overcast
3:20 AM 53.6 °F 46.4 °F 77% 30.15 in 6.2 mi West 3.5 mph - N/A   Mostly Cloudy
3:50 AM 52 °F 47 °F 76% 30.16 in 16 mi WSW 3.5 mph - -   Mostly Cloudy
3:50 AM 53.6 °F 46.4 °F 77% 30.15 in 6.2 mi West 3.5 mph - N/A   Mostly Cloudy
4:20 AM 51.8 °F 46.4 °F 82% 30.15 in 6.2 mi West 2.3 mph - N/A   Mostly Cloudy
4:50 AM 51.8 °F 46.4 °F 82% 30.15 in 6.2 mi SW 3.5 mph - N/A   Mostly Cloudy
5:20 AM 53.6 °F 46.4 °F 77% 30.15 in 6.2 mi Variable 3.5 mph - N/A   Scattered Clouds
5:50 AM 51.8 °F 46.4 °F 82% 30.15 in 6.2 mi NW 3.5 mph - N/A   Scattered Clouds
6:20 AM 51.8 °F 46.4 °F 82% 30.15 in 6.2 mi NW 2.3 mph - N/A   Scattered Clouds
6:50 AM 52 °F 47 °F 77% 30.16 in 11 mi NW 2.3 mph - -  
6:50 AM 53.6 °F 46.4 °F 77% 30.15 in 6.2 mi NW 3.5 mph - N/A   Scattered Clouds
7:20 AM 53.6 °F 48.2 °F 82% 30.15 in 6.2 mi NW 4.6 mph - N/A   Partly Cloudy
7:50 AM 53.6 °F 46.4 °F 77% 30.15 in 6.2 mi NW 3.5 mph - N/A   Partly Cloudy
8:20 AM 57.2 °F 48.2 °F 72% 30.15 in 6.2 mi Variable 2.3 mph - N/A   Partly Cloudy
8:50 AM 59.0 °F 48.2 °F 67% 30.15 in 6.2 mi Variable 3.5 mph - N/A   Partly Cloudy
9:20 AM 62.6 °F 48.2 °F 59% 30.15 in 6.2 mi Variable 3.5 mph - N/A   Partly Cloudy
9:50 AM 63 °F 49 °F 49% 30.15 in 17 mi SSW 2.3 mph - -  
9:50 AM 62.6 °F 48.2 °F 59% 30.15 in 6.2 mi Variable 3.5 mph - N/A   Partly Cloudy
10:20 AM 64.4 °F 48.2 °F 56% 30.15 in 6.2 mi Variable 3.5 mph - N/A   Partly Cloudy
10:50 AM 64.4 °F 48.2 °F 56% 30.15 in 6.2 mi ESE 4.6 mph - N/A   Partly Cloudy
11:20 AM 66.2 °F 46.4 °F 49% 30.15 in 6.2 mi Variable 4.6 mph - N/A   Scattered Clouds
11:50 AM 64.4 °F 46.4 °F 52% 30.12 in 6.2 mi Variable 4.6 mph - N/A   Scattered Clouds
12:20 PM 66.2 °F 46.4 °F 49% 30.12 in 6.2 mi Variable 3.5 mph - N/A   Scattered Clouds
12:50 PM 68 °F 47 °F 37% 30.13 in 16 mi SSW 3.5 mph - -   Scattered Clouds
12:50 PM 68.0 °F 48.2 °F 49% 30.12 in 6.2 mi Variable 4.6 mph - N/A   Scattered Clouds
1:20 PM 68.0 °F 46.4 °F 46% 30.12 in 6.2 mi SW 8.1 mph - N/A   Scattered Clouds
1:50 PM 68.0 °F 46.4 °F 46% 30.12 in 6.2 mi Variable 4.6 mph - N/A   Partly Cloudy
2:20 PM 69.8 °F 46.4 °F 43% 30.09 in 6.2 mi Variable 6.9 mph - N/A   Partly Cloudy
2:50 PM 69.8 °F 46.4 °F 43% 30.09 in 6.2 mi SSW 4.6 mph - N/A   Partly Cloudy
3:20 PM 69.8 °F 44.6 °F 40% 30.09 in 6.2 mi Variable 3.5 mph - N/A   Partly Cloudy
3:50 PM 71 °F 47 °F 30% 30.08 in 19 mi SSE 6.9 mph - -   Scattered Clouds
3:50 PM 69.8 °F 44.6 °F 40% 30.09 in 6.2 mi Variable 6.9 mph - N/A   Partly Cloudy
4:20 PM 71.6 °F 46.4 °F 41% 30.06 in - Variable 6.9 mph - N/A   Clear
4:50 PM 69.8 °F 44.6 °F 40% 30.06 in - South 6.9 mph 20.7 mph N/A   Clear
5:20 PM 69.8 °F 44.6 °F 40% 30.06 in - South 8.1 mph - N/A   Clear
5:50 PM 69.8 °F 44.6 °F 40% 30.06 in - South 6.9 mph - N/A   Clear
6:20 PM 68.0 °F 44.6 °F 43% 30.06 in - South 8.1 mph - N/A   Clear
6:50 PM 69 °F 45 °F 30% 30.06 in 22 mi SW 5.8 mph - -   Partly Cloudy
6:50 PM 68.0 °F 44.6 °F 43% 30.06 in - South 6.9 mph - N/A   Clear
7:20 PM 66.2 °F 44.6 °F 46% 30.04 in - SSW 11.5 mph - N/A   Clear
7:50 PM 64.4 °F 44.6 °F 49% 30.06 in - SSW 11.5 mph - N/A   Clear
8:20 PM 62.6 °F 44.6 °F 52% 30.06 in - SSW 10.4 mph - N/A   Clear
8:50 PM 60.8 °F 42.8 °F 52% 30.06 in - SSW 9.2 mph - N/A   Clear
9:20 PM 59.0 °F 42.8 °F 55% 30.06 in - SSW 9.2 mph - N/A   Clear
9:50 PM 60 °F 43 °F 42% 30.09 in 25 mi South 6.9 mph - -   Partly Cloudy
9:50 PM 59.0 °F 42.8 °F 55% 30.09 in - SSW 8.1 mph - N/A   Clear
10:20 PM 57.2 °F 41.0 °F 55% 30.09 in - SSW 6.9 mph - N/A   Clear
10:50 PM 57.2 °F 41.0 °F 55% 30.09 in - South 6.9 mph - N/A   Clear
11:20 PM 57.2 °F 41.0 °F 55% 30.09 in - South 5.8 mph - N/A   Clear
11:50 PM 55.4 °F 41.0 °F 58% 30.09 in - SSW 3.5 mph - N/A   Clear